Flag for Germany Weather past 2 weeks in Kaufbeuren, Bavaria, Germany

Now
48 °F

Cool.


Feels Like: 46 °F
Forecast: 53 / 68 °F
Wind: 5 mph from Southwest

Location: Altenstadt Airport

Current Time: May 29, 2015 at 5:08:01 AM

Latest Report: May 29, 2015 at 4:20 AM


Visibility: N/A

Pressure: 30.01 "Hg

Humidity: 71%

Dew point: 39 °F

Location of KaufbeurenLocation

Historic Weather in Kaufbeuren — Graph

°F

Kaufbeuren temperature yesterday

Maximum temperature yesterday: 66 °F (at 3:20 PM)
Minimum temperature yesterday: 36 °F (at 4:20 AM)
Average temperature yesterday: 52 °F

Past Weeks' High & Low Weather Summary

 TemperatureHumidityPressure
High72 °F (May 18, 6:20 PM)100% (May 15, 7:20 AM)30.30 "Hg (May 15, 7:20 AM)
Low36 °F (May 28, 4:20 AM)30% (May 28, 5:20 PM)29.80 "Hg (May 15, 1:20 AM)
Average50 °F84%30.06 "Hg
* Reported May 14 3:20 AM — May 29 3:20 AM, Kaufbeuren, Weather by CustomWeather, © 2015

Note: Actual official high and low records may vary slightly from our data, if they occured in-between our weather recording intervals... More about our weather records

Advertising

Kaufbeuren weather history for previous 24 hours

 ConditionsComfort  
Time TempWeatherWind HumidityBarometerVisibility
3:20 AM
Fri, May 29
48 °FCool.3 mph71%30.01 "HgN/A
2:20 AM48 °FCool.3 mph71%30.04 "HgN/A
1:20 AM52 °FCool.5 mph62%30.04 "HgN/A
11:20 PM
Thu, May 28
54 °FCool.7 mph54%30.04 "HgN/A
10:20 PM55 °FRefreshingly cool.5 mph47%30.04 "HgN/A
9:20 PM57 °FRefreshingly cool.7 mph44%30.01 "HgN/A
8:20 PM59 °FPartly sunny.12 mph39%30.01 "HgN/A
7:20 PM63 °FPartly sunny.14 mph34%30.01 "HgN/A
6:20 PM66 °FPartly sunny.15 mph30%30.01 "HgN/A
5:20 PM66 °FPassing clouds.17 mph30%30.01 "HgN/A
4:20 PM66 °FScattered clouds.16 mph32%30.01 "HgN/A
3:20 PM66 °FScattered clouds.16 mph35%30.04 "HgN/A
2:20 PM64 °FPartly sunny.15 mph32%30.04 "HgN/A
1:20 PM63 °FPartly sunny.15 mph42%30.07 "HgN/A
12:20 PM61 °FPartly sunny.10 mph48%30.07 "HgN/A
11:20 AM59 °FPartly sunny.13 mph51%30.09 "HgN/A
10:20 AM55 °FPartly sunny.9 mph59%30.09 "HgN/A
9:20 AM54 °FPartly sunny.3 mph67%30.09 "HgN/A
8:20 AM46 °FPartly sunny.5 mph82%30.12 "HgN/A
7:20 AM41 °FScattered clouds.2 mph87%30.12 "HgN/A
6:20 AM37 °FPassing clouds.2 mph100%30.12 "HgN/A
5:20 AM36 °FFog.2 mph100%30.12 "HgN/A
Weather by CustomWeather, © 2015

See weather overviewHow to use our weather pages